Location: Zagreb
(45.8000°N, 16.0000°E)
Time: 02:19:44
(UTC+02:00)

A-11 Canister half - Visible Passes

Search period start: 08 August 2022 00:00
Search period end: 18 August 2022 00:00
Orbit: 1526 x 1683 km, 47.3° (Epoch: 07 August)

Date Brightness Start Highest point End Pass type
(mag) Time Alt. Az. Time Alt. Az. Time Alt. Az.
09 Aug 10.7 05:18:06 10° S 05:26:01 27° SE 05:33:58 10° ENE visible
10 Aug 10.7 04:56:41 10° S 05:04:24 26° SE 05:12:08 10° E visible
11 Aug 10.7 04:35:18 10° S 04:42:47 24° SE 04:50:18 10° E visible
12 Aug 10.7 04:13:55 10° S 04:21:10 23° SE 04:28:26 10° E visible
13 Aug 10.7 03:52:36 10° S 03:59:33 22° SE 04:06:33 10° E visible
14 Aug 10.7 03:31:17 10° SSE 03:37:57 20° SE 03:44:39 10° E visible
15 Aug 10.7 03:10:44 12° SSE 03:16:20 19° SE 03:22:42 10° E visible
15 Aug 9.6 05:10:03 10° SW 05:19:46 56° SE 05:29:33 10° ENE visible
16 Aug 10.6 02:50:23 13° SSE 02:54:44 18° SE 03:00:44 10° E visible
16 Aug 9.6 04:48:41 11° SW 04:58:05 54° SE 05:07:50 10° ENE visible
17 Aug 10.6 02:29:59 14° SE 02:33:08 16° ESE 02:38:44 10° E visible
17 Aug 9.6 04:28:17 15° SSW 04:36:24 52° SE 04:46:06 10° ENE visible
